Location: Astronomy Club of Akron Observatory
(40.9700°N, 81.5606°W)
Time: 15:58:28
(UTC-04:00)

N. Korean satellite - Pass Details

Date: 26 February 2019
Orbit: 456 x 510 km, 97.2° (Epoch: 20 March)

Event Time Altitude Azimuth Distance (km) Brightness Sun altitude
Rises 18:40:08 0° 200° (SSW) 2,569 10.6 -5.8°
Reaches altitude 10° 18:42:40 10° 219° (SW) 1,682 10.0 -6.3°
Maximum altitude 18:45:18 19° 266° (W) 1,217 10.0 -6.7°
Drops below altitude 10° 18:47:56 10° 313° (NW) 1,669 9.9 -7.2°
Sets 18:50:27 0° 332° (NNW) 2,543 10.6 -7.7°
